Regional Weather Roundup
Issued by NWS

Home | Current Version | Previous Version | Text Only | Print | Product List | Glossary On
Versions: 1 2 3 4 5 6 7 8 9 10 11 12 13 14 15 16 17 18 19 20 21 22 23 24 25 26 27 28 29 30 31 32 33 34 35 36 37 38 39 40 41 42 43 44 45 46 47 48 49 50
125
ASUS43 KIND 171900
RWRIN

WEATHER ROUNDUP FOR INDIANA
NATIONAL WEATHER SERVICE INDIANAPOLIS IN
300 PM EDT THU AUG 17 2017

NOTE: "FAIR" INDICATES FEW OR NO CLOUDS BELOW 12,000 FEET WITH NO
SIGNIFICANT WEATHER AND/OR OBSTRUCTIONS TO VISIBILITY.

* - STATION DOES NOT REPORT WEATHER SUCH AS PRECIPITATION OR FOG.

+ - STATION NOT QUALITY CONTROLLED BY THE NATIONAL WEATHER SERVICE.
    USE DATA WITH CAUTION...ESPECIALLY DEWPOINT AND RELATIVE
    HUMIDITY OBSERVATIONS.

INZ001>003-010>013-019-020-172000-
NORTHWEST INDIANA

CITY           SKY/WX    TMP DP  RH WIND       PRES   REMARKS
GARY /AIRPORT/ PTSUNNY   82  66  57 SW12G29   29.76F
MICHIGAN CITY+ PTSUNNY   79  68  69 SW13G21   29.77S
MONTICELLO +   CLOUDY    80  67  65 SW18G24   29.80S
RENSSELAER +   PTSUNNY   81  66  61 SW18G24   29.79F
VALPARAISO     PTSUNNY   83  72  69 W15       29.77S

$$

LMZ046-743>745-172000-
SOUTHERN LAKE MICHIGAN

STATION/POSITION TIME  TEMP    WIND        PRES    WAVE
                       AIR SEA DIR/SP/G            HT
                 (UTC) (F)     (DEG/KT/KT) (MB)    (FT)
BURNS HARBOR     1840   80     220/ 17/ 22 1008.1F
MICHIGAN CITY    1830   75     240/ 16/ 17   N/A
5NW MICH CITY    1850   76 75  250/ 12/ 16   N/A     2

$$

INZ004-005-014>016-021>024-172000-
NORTH CENTRAL INDIANA

CITY           SKY/WX    TMP DP  RH WIND       PRES   REMARKS
ELKHART        CLOUDY    81  66  61 SW9G17    29.77S
GOSHEN         CLOUDY    80  69  69 SW12      29.78S
PERU/GRISSOM   MOSUNNY   82  69  62 W21G28    29.81R
SOUTH BEND     CLOUDY    82  70  66 SW13      29.77S
WARSAW +       CLOUDY    79  70  73 SW7G16    29.79S

$$

INZ006>009-017-018-025>027-172000-
NORTHEAST INDIANA

CITY           SKY/WX    TMP DP  RH WIND       PRES   REMARKS
FORT WAYNE     PTSUNNY   83  70  64 SW16      29.81F
KENDALLVILLE + CLOUDY    82  73  73 SW16G22   29.80S

$$

INZ028-029-035-036-043>045-051>053-172000-
WEST CENTRAL INDIANA

CITY           SKY/WX    TMP DP  RH WIND       PRES   REMARKS
LAFAYETTE      CLOUDY    81  71  71 SW15G21   29.81S
TERRE HAUTE    PTSUNNY   82  70  66 SW15      29.85F

$$

INZ030>032-037>040-046>048-054>057-064-065-172000-
CENTRAL INDIANA

CITY           SKY/WX    TMP DP  RH WIND       PRES   REMARKS
ANDERSON       PTSUNNY   84  72  65 MISG      29.86
COLUMBUS       CLOUDY    82  72  69 W14       29.86F
GREENWOOD *+   MOSUNNY   83  69  62 W12G17    29.86F
INDIANAPOLIS   PTSUNNY   87  66  49 SW24      29.84F
-EAGLE CREEK   MOSUNNY   84  65  52 SW13G23   29.84S
MT COMFORT *+  MOSUNNY   82  72  69 SW16G23   29.85F
SHELBYVILLE    CLOUDY    84  71  65 SW15G23   29.85F

$$

INZ033-034-041-042-049-050-058-059-172000-
EAST CENTRAL INDIANA

CITY           SKY/WX    TMP DP  RH WIND       PRES   REMARKS
MUNCIE         MOSUNNY   86  71  60 SW12      29.83F
RICHMOND +     LGT RAIN  77  75  94 SW13      29.89F

$$

INZ060-061-067>069-081>083-085>088-172000-
SOUTHWEST INDIANA

CITY           SKY/WX    TMP DP  RH WIND       PRES   REMARKS
EVANSVILLE     MOSUNNY   88  69  53 SW14      29.89F
HUNTINGBURG +  SUNNY     88  72  58 W15G21    29.89F

$$

INZ062-063-066-070>080-084-089>092-172000-
SOUTH CENTRAL AND SOUTHEAST INDIANA

CITY           SKY/WX    TMP DP  RH WIND       PRES   REMARKS
BLOOMINGTON    CLOUDY    84  66  54 W16G25    29.88F
MADISON *+     CLOUDY    79  73  83 SW9       29.92R
SEYMOUR +      CLOUDY    88  73  62 SW13G21   29.86F HX  96

$$





USA.gov is the U.S. government's official web portal to all federal, state and local government web resources and services.